SCP
0 0 0 0 0 0 0 0 0 0 0 0 0 0 0 0 0 0 0 0 0 0 0 0 0 0 0 0 0 0 0 0 0 0 0 0 0 0 0 0 0 0 0 0
0 0 0 0 0 0 0 0 0 0 0 0 0 0 0 0 0 0 0 0 0 0 0 0 0 0 0 0 0 0 0 0 0 0 0 0 0 0 0 0 0 0 0 0
0 0 0 0 0 0 0 0 0 0 0 -0 -0 -0 -0 0 0 0 0 0 0 0 0 0 0 0 0 0 0 0 0 0 0 0 0 0 0 0 0 0 0 0 0 0
0 0 0 0 0 0 0 0 0 0 0 0 0 0 0 0 0 0 0 0 0 0 0 0 0 0 0 0 0 0 0 0 0 0 0 0 0 0 0 0 0 0 0 0
0 0 0 0 0 0 0 0 0 0 0 0 0 0 0 -0 0 0 0 0 0 0 0 0 0 0 0 0 0 0 0 0 0 0 0 0 0 0 0 0 0 0 0 0
0 0 0 0 0 0 0 0 0 0 0 0 0 0 -0 0 0 0 0 0 0 0 0 0 0 0 0 0 0 0 0 0 0 0 0 0 0 0 0 0 0 0 0 0
0 0 0 0 0 0 0 0 0 0 0 0 0 0 0 0 0 0 0 0 0 0 0 0 0 0 0 0 0 0 0 0 0 0 0 0 0 0 0 0 0 0 0 0
0 0 0 0 0 0 0 0 0 0 0 0 0 0 0 0 0 0 0 0 0 0 0 0 0 0 0 0 0 0 0 0 0 0 0 0 0 0 0 0 0 0 0 0
0 0 0 0 0 0 0 0 0 0 0 0 0 0 0 0 0 0 0 0 0 0 0 0 0 0 0 0 0 0 0 0 0 0 0 0 0 0 0 0 0 0 0 0
0 0 0 0 0 0 0 0 0 0 0 0 0 0 0 0 0 0 0 0 0 0 0 0 0 0 0 0 0 0 0 0 0 0 0 0 0 0 0 0 0 0 0 0
0 0 0 0 0 0 0 0 0 0 0 0 0 0 0 0 0 0 0 0 0 0 0 0 0 0 0 0 0 0 0 0 0 0 0 0 0 0 0 0 0 0 0 0
0 0 0 0 0 0 0 0 0 0 0 0 0 -0 0 0 0 0 0 0 0 0 0 0 0 0 0 0 0 0 0 0 0 0 0 0 0 0 0 0 0 0 0 0
0 0 0 0 0 0 0 0 0 0 0 0 0 0 0 0 0 0 0 0 0 0 0 0 0 0 -0 0 0 0 0 0 0 0 0 0 0 0 0 0 0 0 0 0
0 0 0 0 0 0 0 0 0 0 0 0 0 0 0 0 0 0 0 0 0 0 0 0 0 0 0 0 0 0 0 0 0 0 0 0 0 0 0 0 0 0 0 0
0 0 0 0 0 0 0 0 0 0 0 0 0 0 0 0 0 0 0 0 0 0 0 0 0 0 -0 0 0 0 0 0 0 0 0 0 0 0 0 0 0 0 0 0
0 0 0 0 0 0 0 0 0 0 0 0 0 0 0 0 0 0 0 0 0 0 0 0 0 0 0 0 0 0 0 0 0 0 0 0 0 0 0 0 0 0 0 0
0 0 0 0 0 0 0 0 0 0 0 0 0 0 0 0 0 0 0 0 0 0 0 0 0 0 0 0 0 0 0 0 0 0 0 0 0 0 0 0 0 0 0 0
0 0 0 0 0 0 0 0 0 0 0 0 0 0 0 0 0 0 0 0 0 0 0 0 0 0 0 0 0 0 0 0 0 0 0 0 0 0 0 0 0 0 0 0
0 0 0 0 0 0 0 0 0 0 0 0 0 0 0 0 0 0 0 0 0 0 0 0 0 0 0 0 0 0 0 0 0 0 0 0 0 0 0 0 0 0 0 0
0 0 0 0 0 0 0 0 0 0 0 0 0 0 0 0 0 0 0 0 0 0 0 0 0 0 0 0 0 0 0 0 0 0 0 0 0 0 0 0 0 0 0 0
0 0 0 0 0 0 0 0 0 0 0 0 0 0 0 0 0 0 0 0 0 0 0 0 0 0 0 0 0 0 0 0 0 0 0 0 0 0 0 0 0 0 0 0
0 0 0 0 0 0 0 0 0 0 0 0 0 0 0 0 0 0 0 0 0 0 0 0 0 0 0 0 0 0 0 0 0 0 0 0 0 0 0 0 0 0 0 0
0 0 0 0 0 0 0 0 0 0 0 0 0 0 0 0 0 0 0 0 0 0 0 0 0 0 0 0 0 0 0 0 0 0 0 0 0 0 0 0 0 0 0 0
0 0 0 0 0 0 0 0 0 0 0 0 0 0 0 0 0 0 0 0 0 0 0 0 0 0 0 0 0 0 0 0 0 0 0 0 0 0 0 0 0 0 0 0
0 0 0 0 0 0 0 0 0 0 0 0 0 0 0 0 0 -0 -0 -0 -0 -0 0 0 0 0 0 0 0 0 0 0 0 0 0 0 0 0 0 0 0 0 0 0
0 0 0 0 0 0 0 0 0 0 0 0 0 0 0 0 0 0 0 0 0 0 0 0 0 0 0 0 0 0 0 0 0 0 0 0 0 0 0 0 0 0 0 0
Wind_Speed_500mb
17 19 22 30 34 32 15 17 25 24 6 7 25 39 43 46 47 57 61 60 61 64 51 45 47 56 64 66 69 75 77 79 82 84 83 81 78 74 74 75 77 71 68 65
10 29 27 28 14 19 22 29 33 30 20 5 30 40 48 45 51 65 64 65 64 58 52 50 49 54 65 70 78 81 81 81 86 86 83 79 76 79 77 79 79 82 78 75
34 7 16 24 19 21 31 34 30 33 23 26 24 33 41 38 42 58 69 75 72 61 54 46 52 63 64 74 81 83 85 84 85 85 78 75 73 77 78 82 86 88 85 80
26 31 12 15 28 27 31 28 26 25 12 16 2 21 31 36 36 32 48 54 52 41 46 45 50 56 60 67 73 81 82 82 82 81 81 81 79 72 72 75 80 86 84 81
9 18 29 33 25 21 8 5 10 11 16 25 31 19 14 27 30 33 42 46 36 35 31 30 34 46 50 50 61 71 77 78 80 82 80 82 73 65 67 71 72 72 78 79
12 4 13 15 6 20 23 14 8 4 8 18 33 31 31 27 39 37 36 27 16 16 18 20 23 27 33 42 51 60 66 74 76 77 79 75 68 64 67 67 68 72 73 80
29 23 9 8 11 9 21 13 8 10 11 21 7 19 40 9 17 25 26 14 7 13 12 14 27 27 32 39 45 52 57 62 66 72 73 71 67 64 68 65 66 68 78 84
29 23 33 29 31 20 27 25 13 14 15 26 10 20 15 15 20 32 44 36 24 26 24 30 32 33 31 33 37 42 48 54 60 65 68 68 66 66 67 62 63 64 69 71
24 27 9 2 17 25 14 21 25 26 6 11 24 41 43 23 24 31 36 36 33 26 25 22 26 30 31 32 32 36 40 46 55 61 62 66 66 70 69 68 67 63 62 66
21 37 9 11 8 27 20 7 13 13 12 21 31 34 26 7 24 29 32 39 30 15 13 14 14 16 19 25 28 31 35 40 49 57 61 66 68 70 65 65 64 63 64 62
25 25 7 10 24 31 20 23 18 18 19 15 31 26 26 10 19 26 20 26 19 13 13 8 8 8 11 17 20 24 32 38 45 53 58 63 66 66 66 66 66 61 61 60
15 6 23 37 9 23 33 41 45 18 14 18 21 42 6 5 5 17 26 24 17 16 15 14 10 6 7 10 15 18 23 32 40 46 54 60 60 62 64 65 64 63 63 64
5 8 7 9 21 10 16 35 40 42 17 29 28 49 15 5 2 6 10 6 13 16 18 14 7 9 10 7 9 14 19 24 32 41 50 56 62 64 63 62 62 63 62 64
19 4 9 22 2 9 17 33 41 35 24 51 35 70 36 19 8 11 21 16 13 20 23 16 9 21 28 20 24 25 27 31 36 42 50 57 63 64 62 61 61 64 65 69
20 14 16 32 39 33 10 16 31 47 57 40 63 52 54 30 32 22 19 22 27 39 39 38 29 28 35 35 32 37 38 40 48 51 57 63 68 66 64 63 63 64 68 70
4 6 7 8 24 19 17 28 35 37 52 54 66 60 42 31 17 22 33 27 35 36 45 53 63 65 48 45 45 50 51 52 57 61 62 66 70 67 68 64 62 63 69 72
8 7 5 7 2 19 22 12 32 28 37 41 46 60 31 35 26 37 45 50 51 47 49 57 65 63 59 64 66 66 60 62 64 67 66 68 71 72 72 68 64 64 70 72
8 6 6 9 1 13 5 9 13 24 36 39 42 57 49 53 68 61 52 41 48 61 71 81 85 77 76 76 69 67 70 72 71 73 72 73 73 75 74 71 67 66 69 74
28 14 8 9 15 17 30 25 17 13 20 11 19 30 40 46 42 45 33 33 48 63 64 65 65 72 73 74 74 70 70 72 75 75 76 73 71 74 77 77 75 71 69 74
28 22 13 11 12 12 14 8 6 14 16 11 17 21 28 33 10 12 60 67 64 53 56 63 60 57 58 61 61 60 60 64 72 71 71 68 68 73 75 76 76 73 66 69
11 11 28 24 16 12 5 2 2 16 8 11 11 22 26 11 18 44 42 57 58 63 55 53 55 62 59 54 50 51 54 61 60 60 62 64 63 67 69 71 75 71 66 67
16 13 13 13 15 20 4 7 2 2 13 17 32 50 56 44 45 56 55 47 58 62 60 51 54 53 55 55 52 50 50 48 50 51 54 56 56 59 60 63 71 68 69 68
11 11 4 7 7 13 9 5 17 20 26 22 35 53 50 58 56 56 64 63 54 49 58 56 47 43 42 43 41 41 42 42 42 42 44 43 43 46 47 52 61 60 61 62
4 4 8 6 19 21 30 17 13 28 31 51 54 64 65 63 62 57 55 59 59 52 51 55 56 47 38 33 38 39 35 32 32 33 34 34 37 39 41 45 49 52 56 56
17 2 9 16 25 29 32 15 36 59 59 56 66 73 66 65 64 61 62 61 60 57 50 47 55 58 51 44 40 39 35 32 29 27 28 30 33 34 35 39 40 44 45 44
30 35 21 25 38 36 51 63 74 66 62 65 68 71 71 74 65 64 67 66 54 53 48 51 53 56 59 51 44 40 36 33 31 31 30 30 31 32 31 33 35 36 36 34
Wind_Direction_500mb
196 216 215 223 229 252 293 286 277 280 133 256 262 271 274 271 267 265 263 262 260 254 250 241 233 233 227 225 223 226 226 225 225 226 227 232 235 234 232 228 228 228 230 232
183 227 232 242 322 269 247 264 267 279 293 236 276 273 276 270 258 258 261 260 258 260 253 240 229 232 232 234 234 231 230 228 227 229 232 235 237 237 235 231 227 228 228 230
226 205 232 236 235 239 245 254 264 270 300 250 278 278 257 259 253 257 258 259 259 257 257 244 227 236 240 234 232 232 232 230 229 229 230 232 235 238 238 232 228 227 230 227
243 237 189 206 235 229 259 249 248 263 278 282 54 287 291 291 268 245 255 258 257 254 250 243 233 244 244 243 239 236 231 228 229 228 229 233 238 240 242 235 230 227 225 230
209 196 209 223 227 203 247 80 210 229 250 293 259 262 272 253 250 257 258 258 256 251 243 236 230 227 245 240 236 234 230 227 227 227 227 232 235 236 238 236 230 226 223 228
274 353 212 224 84 202 137 108 107 191 261 263 262 242 270 241 228 255 264 264 274 218 217 214 220 235 236 235 234 231 226 226 226 226 227 230 231 230 235 234 230 226 223 224
218 218 168 170 121 119 201 184 235 234 199 254 341 262 249 266 295 263 275 288 178 187 214 241 261 254 243 237 232 225 223 221 223 226 226 226 228 229 239 238 234 227 225 227
213 226 188 185 215 185 196 202 212 234 245 272 105 236 260 225 280 253 250 251 252 259 256 258 245 246 244 239 233 228 226 219 221 224 226 226 226 227 235 235 233 232 230 229
221 232 176 160 198 181 172 212 249 265 291 282 255 263 272 217 230 239 251 257 261 262 268 258 249 244 244 239 238 237 235 227 223 225 225 226 226 229 234 236 236 231 228 229
245 262 168 142 188 241 233 244 204 213 240 244 257 257 256 234 237 242 241 245 252 251 249 249 238 231 233 236 240 238 234 230 225 229 227 227 227 229 233 235 234 231 228 229
235 249 137 156 207 202 193 222 225 229 223 239 265 259 258 282 238 237 241 223 192 191 198 188 224 227 230 232 236 238 236 234 228 230 227 227 229 231 234 235 235 230 228 228
217 291 246 226 211 241 228 224 210 215 212 239 262 270 142 334 306 217 197 182 172 182 172 172 178 207 231 242 246 248 245 243 239 235 230 230 230 231 234 233 233 229 227 227
40 195 231 246 248 211 244 234 240 239 257 246 228 259 27 63 342 210 203 209 201 193 187 169 185 227 224 237 271 277 269 258 248 239 234 231 229 231 234 232 234 227 226 225
95 239 237 242 98 13 236 234 234 230 226 240 241 260 252 258 274 229 223 234 228 230 206 187 225 255 241 239 270 275 268 263 255 244 237 233 232 234 234 235 236 229 226 226
163 212 219 252 275 291 247 293 280 232 236 233 251 251 261 260 264 255 256 249 241 235 227 228 253 298 266 251 266 266 264 267 261 252 245 237 234 233 232 234 234 231 230 231
118 180 170 246 264 268 281 265 246 268 263 254 254 260 263 286 324 271 274 250 249 260 258 258 269 278 269 262 268 269 266 265 264 256 253 245 243 238 237 237 236 232 231 231
160 163 178 252 119 326 290 221 230 243 247 255 259 264 297 286 290 294 290 273 271 273 273 279 287 290 286 290 281 268 272 263 263 260 256 251 247 242 240 239 239 237 236 236
164 170 187 257 98 251 272 340 249 247 243 243 256 267 279 286 291 290 284 292 284 277 280 284 288 286 284 286 280 273 267 263 261 258 256 251 248 245 243 241 241 242 238 238
203 197 222 248 240 302 299 287 259 209 279 327 302 326 322 317 293 279 321 335 300 285 289 289 286 283 283 281 283 277 270 265 260 259 256 252 249 248 245 242 239 239 240 240
217 215 210 202 241 251 278 132 133 129 258 49 21 7 4 351 301 315 350 344 321 298 296 303 304 299 295 288 278 271 268 264 262 261 261 256 249 250 247 246 243 240 241 244
160 194 222 227 240 262 347 339 172 238 305 359 7 357 343 338 302 306 324 331 333 331 307 295 293 296 295 289 284 275 267 262 263 259 256 251 249 249 247 245 244 240 240 241
191 193 202 219 227 247 107 95 267 339 287 289 308 321 316 297 299 313 319 318 332 327 324 305 298 295 293 291 285 280 273 269 265 262 257 253 251 247 244 242 242 238 235 236
236 239 246 222 229 112 78 287 329 336 309 317 316 311 310 306 299 303 306 310 314 322 316 322 308 299 297 296 292 288 281 276 268 260 254 249 244 242 240 237 237 235 234 233
250 324 245 3 258 306 327 322 354 1 332 323 324 318 321 304 302 302 307 311 303 309 310 308 316 309 301 298 296 290 281 274 266 258 248 243 240 238 236 234 233 233 234 233
257 271 232 266 280 295 294 293 318 320 316 314 312 309 309 311 307 306 304 307 306 300 300 298 303 302 301 296 292 283 273 263 256 244 235 228 226 225 224 228 234 233 236 240
238 247 254 265 283 298 292 295 300 304 300 303 300 305 309 307 300 309 304 300 299 295 290 291 297 286 286 290 289 276 264 255 248 240 226 222 219 219 217 221 224 226 232 235
Wind_Speed_850mb
17 19 22 30 34 32 15 17 25 24 6 7 25 39 43 46 47 57 61 60 61 64 51 45 47 56 64 66 69 75 77 79 82 84 83 81 78 74 74 75 77 71 68 65
10 29 27 28 14 19 22 29 33 30 20 5 30 40 48 45 51 65 64 65 64 58 52 50 49 54 65 70 78 81 81 81 86 86 83 79 76 79 77 79 79 82 78 75
34 7 16 24 19 21 31 34 30 33 23 26 24 33 41 38 42 58 69 75 72 61 54 46 52 63 64 74 81 83 85 84 85 85 78 75 73 77 78 82 86 88 85 80
26 31 12 15 28 27 31 28 26 25 12 16 2 21 31 36 36 32 48 54 52 41 46 45 50 56 60 67 73 81 82 82 82 81 81 81 79 72 72 75 80 86 84 81
9 18 29 33 25 21 8 5 10 11 16 25 31 19 14 27 30 33 42 46 36 35 31 30 34 46 50 50 61 71 77 78 80 82 80 82 73 65 67 71 72 72 78 79
12 4 13 15 6 20 23 14 8 4 8 18 33 31 31 27 39 37 36 27 16 16 18 20 23 27 33 42 51 60 66 74 76 77 79 75 68 64 67 67 68 72 73 80
29 23 9 8 11 9 21 13 8 10 11 21 7 19 40 9 17 25 26 14 7 13 12 14 27 27 32 39 45 52 57 62 66 72 73 71 67 64 68 65 66 68 78 84
29 23 33 29 31 20 27 25 13 14 15 26 10 20 15 15 20 32 44 36 24 26 24 30 32 33 31 33 37 42 48 54 60 65 68 68 66 66 67 62 63 64 69 71
24 27 9 2 17 25 14 21 25 26 6 11 24 41 43 23 24 31 36 36 33 26 25 22 26 30 31 32 32 36 40 46 55 61 62 66 66 70 69 68 67 63 62 66
21 37 9 11 8 27 20 7 13 13 12 21 31 34 26 7 24 29 32 39 30 15 13 14 14 16 19 25 28 31 35 40 49 57 61 66 68 70 65 65 64 63 64 62
25 25 7 10 24 31 20 23 18 18 19 15 31 26 26 10 19 26 20 26 19 13 13 8 8 8 11 17 20 24 32 38 45 53 58 63 66 66 66 66 66 61 61 60
15 6 23 37 9 23 33 41 45 18 14 18 21 42 6 5 5 17 26 24 17 16 15 14 10 6 7 10 15 18 23 32 40 46 54 60 60 62 64 65 64 63 63 64
5 8 7 9 21 10 16 35 40 42 17 29 28 49 15 5 2 6 10 6 13 16 18 14 7 9 10 7 9 14 19 24 32 41 50 56 62 64 63 62 62 63 62 64
19 4 9 22 2 9 17 33 41 35 24 51 35 70 36 19 8 11 21 16 13 20 23 16 9 21 28 20 24 25 27 31 36 42 50 57 63 64 62 61 61 64 65 69
20 14 16 32 39 33 10 16 31 47 57 40 63 52 54 30 32 22 19 22 27 39 39 38 29 28 35 35 32 37 38 40 48 51 57 63 68 66 64 63 63 64 68 70
4 6 7 8 24 19 17 28 35 37 52 54 66 60 42 31 17 22 33 27 35 36 45 53 63 65 48 45 45 50 51 52 57 61 62 66 70 67 68 64 62 63 69 72
8 7 5 7 2 19 22 12 32 28 37 41 46 60 31 35 26 37 45 50 51 47 49 57 65 63 59 64 66 66 60 62 64 67 66 68 71 72 72 68 64 64 70 72
8 6 6 9 1 13 5 9 13 24 36 39 42 57 49 53 68 61 52 41 48 61 71 81 85 77 76 76 69 67 70 72 71 73 72 73 73 75 74 71 67 66 69 74
28 14 8 9 15 17 30 25 17 13 20 11 19 30 40 46 42 45 33 33 48 63 64 65 65 72 73 74 74 70 70 72 75 75 76 73 71 74 77 77 75 71 69 74
28 22 13 11 12 12 14 8 6 14 16 11 17 21 28 33 10 12 60 67 64 53 56 63 60 57 58 61 61 60 60 64 72 71 71 68 68 73 75 76 76 73 66 69
11 11 28 24 16 12 5 2 2 16 8 11 11 22 26 11 18 44 42 57 58 63 55 53 55 62 59 54 50 51 54 61 60 60 62 64 63 67 69 71 75 71 66 67
16 13 13 13 15 20 4 7 2 2 13 17 32 50 56 44 45 56 55 47 58 62 60 51 54 53 55 55 52 50 50 48 50 51 54 56 56 59 60 63 71 68 69 68
11 11 4 7 7 13 9 5 17 20 26 22 35 53 50 58 56 56 64 63 54 49 58 56 47 43 42 43 41 41 42 42 42 42 44 43 43 46 47 52 61 60 61 62
4 4 8 6 19 21 30 17 13 28 31 51 54 64 65 63 62 57 55 59 59 52 51 55 56 47 38 33 38 39 35 32 32 33 34 34 37 39 41 45 49 52 56 56
17 2 9 16 25 29 32 15 36 59 59 56 66 73 66 65 64 61 62 61 60 57 50 47 55 58 51 44 40 39 35 32 29 27 28 30 33 34 35 39 40 44 45 44
30 35 21 25 38 36 51 63 74 66 62 65 68 71 71 74 65 64 67 66 54 53 48 51 53 56 59 51 44 40 36 33 31 31 30 30 31 32 31 33 35 36 36 34
Wind_Direction_850mb
196 216 215 223 229 252 293 286 277 280 133 256 262 271 274 271 267 265 263 262 260 254 250 241 233 233 227 225 223 226 226 225 225 226 227 232 235 234 232 228 228 228 230 232
183 227 232 242 322 269 247 264 267 279 293 236 276 273 276 270 258 258 261 260 258 260 253 240 229 232 232 234 234 231 230 228 227 229 232 235 237 237 235 231 227 228 228 230
226 205 232 236 235 239 245 254 264 270 300 250 278 278 257 259 253 257 258 259 259 257 257 244 227 236 240 234 232 232 232 230 229 229 230 232 235 238 238 232 228 227 230 227
243 237 189 206 235 229 259 249 248 263 278 282 54 287 291 291 268 245 255 258 257 254 250 243 233 244 244 243 239 236 231 228 229 228 229 233 238 240 242 235 230 227 225 230
209 196 209 223 227 203 247 80 210 229 250 293 259 262 272 253 250 257 258 258 256 251 243 236 230 227 245 240 236 234 230 227 227 227 227 232 235 236 238 236 230 226 223 228
274 353 212 224 84 202 137 108 107 191 261 263 262 242 270 241 228 255 264 264 274 218 217 214 220 235 236 235 234 231 226 226 226 226 227 230 231 230 235 234 230 226 223 224
218 218 168 170 121 119 201 184 235 234 199 254 341 262 249 266 295 263 275 288 178 187 214 241 261 254 243 237 232 225 223 221 223 226 226 226 228 229 239 238 234 227 225 227
213 226 188 185 215 185 196 202 212 234 245 272 105 236 260 225 280 253 250 251 252 259 256 258 245 246 244 239 233 228 226 219 221 224 226 226 226 227 235 235 233 232 230 229
221 232 176 160 198 181 172 212 249 265 291 282 255 263 272 217 230 239 251 257 261 262 268 258 249 244 244 239 238 237 235 227 223 225 225 226 226 229 234 236 236 231 228 229
245 262 168 142 188 241 233 244 204 213 240 244 257 257 256 234 237 242 241 245 252 251 249 249 238 231 233 236 240 238 234 230 225 229 227 227 227 229 233 235 234 231 228 229
235 249 137 156 207 202 193 222 225 229 223 239 265 259 258 282 238 237 241 223 192 191 198 188 224 227 230 232 236 238 236 234 228 230 227 227 229 231 234 235 235 230 228 228
217 291 246 226 211 241 228 224 210 215 212 239 262 270 142 334 306 217 197 182 172 182 172 172 178 207 231 242 246 248 245 243 239 235 230 230 230 231 234 233 233 229 227 227
40 195 231 246 248 211 244 234 240 239 257 246 228 259 27 63 342 210 203 209 201 193 187 169 185 227 224 237 271 277 269 258 248 239 234 231 229 231 234 232 234 227 226 225
95 239 237 242 98 13 236 234 234 230 226 240 241 260 252 258 274 229 223 234 228 230 206 187 225 255 241 239 270 275 268 263 255 244 237 233 232 234 234 235 236 229 226 226
163 212 219 252 275 291 247 293 280 232 236 233 251 251 261 260 264 255 256 249 241 235 227 228 253 298 266 251 266 266 264 267 261 252 245 237 234 233 232 234 234 231 230 231
118 180 170 246 264 268 281 265 246 268 263 254 254 260 263 286 324 271 274 250 249 260 258 258 269 278 269 262 268 269 266 265 264 256 253 245 243 238 237 237 236 232 231 231
160 163 178 252 119 326 290 221 230 243 247 255 259 264 297 286 290 294 290 273 271 273 273 279 287 290 286 290 281 268 272 263 263 260 256 251 247 242 240 239 239 237 236 236
164 170 187 257 98 251 272 340 249 247 243 243 256 267 279 286 291 290 284 292 284 277 280 284 288 286 284 286 280 273 267 263 261 258 256 251 248 245 243 241 241 242 238 238
203 197 222 248 240 302 299 287 259 209 279 327 302 326 322 317 293 279 321 335 300 285 289 289 286 283 283 281 283 277 270 265 260 259 256 252 249 248 245 242 239 239 240 240
217 215 210 202 241 251 278 132 133 129 258 49 21 7 4 351 301 315 350 344 321 298 296 303 304 299 295 288 278 271 268 264 262 261 261 256 249 250 247 246 243 240 241 244
160 194 222 227 240 262 347 339 172 238 305 359 7 357 343 338 302 306 324 331 333 331 307 295 293 296 295 289 284 275 267 262 263 259 256 251 249 249 247 245 244 240 240 241
191 193 202 219 227 247 107 95 267 339 287 289 308 321 316 297 299 313 319 318 332 327 324 305 298 295 293 291 285 280 273 269 265 262 257 253 251 247 244 242 242 238 235 236
236 239 246 222 229 112 78 287 329 336 309 317 316 311 310 306 299 303 306 310 314 322 316 322 308 299 297 296 292 288 281 276 268 260 254 249 244 242 240 237 237 235 234 233
250 324 245 3 258 306 327 322 354 1 332 323 324 318 321 304 302 302 307 311 303 309 310 308 316 309 301 298 296 290 281 274 266 258 248 243 240 238 236 234 233 233 234 233
257 271 232 266 280 295 294 293 318 320 316 314 312 309 309 311 307 306 304 307 306 300 300 298 303 302 301 296 292 283 273 263 256 244 235 228 226 225 224 228 234 233 236 240
238 247 254 265 283 298 292 295 300 304 300 303 300 305 309 307 300 309 304 300 299 295 290 291 297 286 286 290 289 276 264 255 248 240 226 222 219 219 217 221 224 226 232 235